Flag for U.S.A. Weather past 2 weeks in Irving, Texas, U.S.A.

Now
80 °F

Clear.


Feels Like: 82 °F
Forecast: 79 / 98 °F
Wind: 8 mph from South

Location: Dallas / Fort Worth International Airport

Current Time: Aug 23, 2014 at 8:33:02 AM

Latest Report: Aug 23, 2014 at 7:53 AM


Visibility: 10 mi

Pressure: 29.96 "Hg

Humidity: 64%

Dew point: 67 °F

Location of IrvingLocation

Historic Weather in Irving — Graph

°F

Irving temperature yesterday

Maximum temperature yesterday: 100 °F (at 4:53 PM)
Minimum temperature yesterday: 80 °F (at 6:53 AM)
Average temperature yesterday: 89 °F

Past Weeks' High & Low Weather Summary

 TemperatureHumidityPressure
High103 °F (Aug 8, 3:53 PM)94% (Aug 18, 1:53 AM)30.09 "Hg (Aug 18, 1:53 AM)
Low70 °F (Aug 17, 10:01 AM)27% (Aug 13, 5:53 PM)29.80 "Hg (Aug 19, 6:53 PM)
Average86 °F54%29.93 "Hg
* Reported Aug 8 6:53 AM — Aug 23 6:53 AM, Irving, Weather by CustomWeather, © 2014

Note: Actual official high and low records may vary slightly from our data, if they occured in-between our weather recording intervals... More about our weather records

Advertising

Irving weather history for previous 24 hours

 ConditionsComfort  
Time TempWeatherWind HumidityBarometerVisibility
6:53 AM
Aug 23
79 °FClear.8 mph67%29.95 "Hg10 mi
5:53 AM81 °FClear.12 mph62%29.94 "Hg10 mi
4:53 AM82 °FClear.13 mph60%29.93 "Hg10 mi
3:53 AM83 °FClear.13 mph61%29.93 "Hg10 mi
2:53 AM84 °FClear.14 mph59%29.92 "Hg10 mi
1:53 AM85 °FClear.14 mph55%29.93 "Hg10 mi
12:53 AM86 °FClear.13 mph53%29.92 "Hg10 mi
11:53 PM
Aug 22
87 °FClear.12 mph50%29.92 "Hg10 mi
10:53 PM89 °FClear.12 mph48%29.92 "Hg10 mi
9:53 PM90 °FClear.10 mph43%29.92 "Hg10 mi
8:53 PM90 °FSunny.9 mph38%29.90 "Hg10 mi
7:53 PM94 °FSunny.10 mph31%29.89 "Hg10 mi
6:53 PM97 °FSunny.13 mph27%29.89 "Hg10 mi
5:53 PM99 °FPassing clouds.14 mph30%29.90 "Hg10 mi
4:53 PM100 °FPassing clouds.10 mph28%29.92 "Hg10 mi
3:53 PM99 °FPassing clouds.13 mph31%29.93 "Hg10 mi
2:53 PM98 °FPassing clouds.15 mph32%29.96 "Hg10 mi
1:53 PM97 °FPassing clouds.13 mph36%29.98 "Hg10 mi
12:53 PM94 °FPassing clouds.15 mph40%29.99 "Hg10 mi
11:53 AM92 °FPassing clouds.13 mph44%30.01 "Hg10 mi
10:53 AM89 °FSunny.20 mph50%30.01 "Hg10 mi
9:53 AM86 °FSunny.20 mph63%30.01 "Hg10 mi
8:53 AM83 °FPassing clouds.17 mph72%30.01 "Hg10 mi
Weather by CustomWeather, © 2014

See weather overviewHow to use our weather pages